TimeCDT,TemperatureF,Dew PointF,Humidity,Sea Level PressureIn,VisibilityMPH,Wind Direction,Wind SpeedMPH,Gust SpeedMPH,PrecipitationIn,Events,Conditions,WindDirDegrees,DateUTC
12:15 AM,48.2,37.4,66,30.07,10.0,SE,4.6,-,N/A,,Clear,140,2012-09-30 05:15:00
12:35 AM,48.2,37.4,66,30.06,10.0,SE,5.8,-,N/A,,Clear,140,2012-09-30 05:35:00
12:55 AM,46.4,35.6,66,30.06,10.0,SE,6.9,-,N/A,,Clear,140,2012-09-30 05:55:00
1:15 AM,46.4,37.4,71,30.06,10.0,SSE,5.8,-,N/A,,Clear,150,2012-09-30 06:15:00
1:35 AM,46.4,37.4,71,30.06,10.0,SE,6.9,-,N/A,,Clear,140,2012-09-30 06:35:00
1:55 AM,46.4,37.4,71,30.06,10.0,SE,5.8,-,N/A,,Clear,130,2012-09-30 06:55:00
2:15 AM,46.4,37.4,71,30.06,10.0,SE,5.8,-,N/A,,Clear,140,2012-09-30 07:15:00
2:35 AM,46.4,37.4,71,30.05,10.0,SE,5.8,-,N/A,,Clear,140,2012-09-30 07:35:00
2:55 AM,44.6,37.4,76,30.05,10.0,SE,4.6,-,N/A,,Clear,140,2012-09-30 07:55:00
3:15 AM,44.6,37.4,76,30.04,10.0,SE,4.6,-,N/A,,Clear,140,2012-09-30 08:15:00
3:35 AM,44.6,37.4,76,30.04,10.0,SE,4.6,-,N/A,,Clear,140,2012-09-30 08:35:00
3:55 AM,42.8,37.4,81,30.04,10.0,SE,4.6,-,N/A,,Clear,140,2012-09-30 08:55:00
4:15 AM,42.8,37.4,81,30.04,10.0,SE,4.6,-,N/A,,Clear,140,2012-09-30 09:15:00
4:35 AM,41.0,37.4,87,30.04,10.0,Calm,Calm,-,N/A,,Clear,0,2012-09-30 09:35:00
4:55 AM,41.0,35.6,81,30.03,10.0,SE,3.5,-,N/A,,Clear,140,2012-09-30 09:55:00
5:15 AM,41.0,37.4,87,30.03,10.0,SE,4.6,-,N/A,,Clear,140,2012-09-30 10:15:00
5:35 AM,41.0,37.4,87,30.03,10.0,SSE,4.6,-,N/A,,Clear,150,2012-09-30 10:35:00
5:55 AM,39.2,37.4,93,30.03,10.0,SSE,3.5,-,N/A,,Clear,150,2012-09-30 10:55:00
6:15 AM,39.2,37.4,93,30.02,10.0,SE,4.6,-,N/A,,Clear,140,2012-09-30 11:15:00
6:35 AM,41.0,37.4,87,30.02,10.0,SSE,5.8,-,N/A,,Clear,150,2012-09-30 11:35:00
6:55 AM,42.8,37.4,81,30.02,10.0,SE,5.8,-,N/A,,Clear,140,2012-09-30 11:55:00
7:15 AM,41.0,37.4,87,30.02,10.0,SSE,4.6,-,N/A,,Clear,150,2012-09-30 12:15:00
7:35 AM,41.0,37.4,87,30.02,10.0,SE,5.8,-,N/A,,Clear,140,2012-09-30 12:35:00
7:55 AM,41.0,37.4,87,30.02,10.0,SE,4.6,-,N/A,,Clear,140,2012-09-30 12:55:00
8:15 AM,42.8,39.2,87,30.02,10.0,SE,6.9,-,N/A,,Clear,140,2012-09-30 13:15:00
8:35 AM,42.8,39.2,87,30.02,10.0,SE,6.9,-,N/A,,Clear,140,2012-09-30 13:35:00
8:55 AM,44.6,39.2,81,30.02,10.0,SSE,5.8,-,N/A,,Clear,150,2012-09-30 13:55:00
9:15 AM,46.4,39.2,76,30.02,10.0,SSE,5.8,-,N/A,,Clear,150,2012-09-30 14:15:00
9:35 AM,48.2,39.2,71,30.02,10.0,SSE,6.9,-,N/A,,Clear,150,2012-09-30 14:35:00
9:55 AM,51.8,39.2,62,30.02,10.0,SSE,8.1,-,N/A,,Clear,150,2012-09-30 14:55:00
10:15 AM,55.4,39.2,54,30.01,10.0,SSE,9.2,-,N/A,,Clear,150,2012-09-30 15:15:00
10:35 AM,57.2,39.2,51,30.01,10.0,SSE,10.4,-,N/A,,Clear,160,2012-09-30 15:35:00
10:55 AM,59.0,39.2,48,30.00,10.0,SSE,8.1,-,N/A,,Clear,150,2012-09-30 15:55:00
11:15 AM,60.8,39.2,45,29.99,10.0,South,11.5,-,N/A,,Clear,170,2012-09-30 16:15:00
11:35 AM,62.6,39.2,42,29.98,10.0,South,10.4,-,N/A,,Clear,170,2012-09-30 16:35:00
11:55 AM,64.4,39.2,40,29.98,10.0,South,11.5,16.1,N/A,,Clear,180,2012-09-30 16:55:00
12:15 PM,66.2,37.4,35,29.98,10.0,SSE,15.0,-,N/A,,Clear,160,2012-09-30 17:15:00
12:35 PM,68.0,37.4,33,29.97,10.0,South,12.7,-,N/A,,Clear,170,2012-09-30 17:35:00
12:55 PM,69.8,37.4,31,29.96,10.0,SSE,11.5,-,N/A,,Clear,160,2012-09-30 17:55:00
1:15 PM,69.8,39.2,33,29.96,10.0,South,10.4,-,N/A,,Clear,180,2012-09-30 18:15:00
1:35 PM,71.6,39.2,31,29.95,10.0,SSE,11.5,-,N/A,,Clear,160,2012-09-30 18:35:00
1:55 PM,71.6,39.2,31,29.94,10.0,SSE,10.4,-,N/A,,Clear,150,2012-09-30 18:55:00
2:15 PM,73.4,39.2,29,29.93,10.0,SSE,10.4,19.6,N/A,,Clear,150,2012-09-30 19:15:00
2:35 PM,73.4,39.2,29,29.92,10.0,South,13.8,17.3,N/A,,Clear,170,2012-09-30 19:35:00
2:55 PM,75.2,39.2,27,29.91,10.0,South,9.2,17.3,N/A,,Clear,170,2012-09-30 19:55:00
3:15 PM,75.2,39.2,27,29.91,10.0,South,12.7,-,N/A,,Clear,170,2012-09-30 20:15:00
3:35 PM,75.2,41.0,29,29.90,10.0,South,10.4,16.1,N/A,,Clear,170,2012-09-30 20:35:00
3:55 PM,75.2,41.0,29,29.89,10.0,South,12.7,-,N/A,,Clear,170,2012-09-30 20:55:00
4:15 PM,75.2,41.0,29,29.89,10.0,South,12.7,-,N/A,,Clear,170,2012-09-30 21:15:00
4:35 PM,75.2,41.0,29,29.88,10.0,South,11.5,-,N/A,,Clear,170,2012-09-30 21:35:00
4:55 PM,75.2,41.0,29,29.88,10.0,SSE,11.5,-,N/A,,Clear,150,2012-09-30 21:55:00
5:15 PM,75.2,41.0,29,29.88,10.0,South,10.4,-,N/A,,Clear,170,2012-09-30 22:15:00
5:35 PM,75.2,39.2,27,29.87,10.0,South,11.5,-,N/A,,Clear,180,2012-09-30 22:35:00
5:55 PM,73.4,39.2,29,29.87,10.0,South,8.1,-,N/A,,Clear,180,2012-09-30 22:55:00
6:15 PM,73.4,39.2,29,29.87,10.0,South,9.2,-,N/A,,Clear,170,2012-09-30 23:15:00
6:35 PM,69.8,39.2,33,29.87,10.0,SSE,5.8,-,N/A,,Clear,150,2012-09-30 23:35:00
6:55 PM,66.2,39.2,37,29.87,10.0,SSE,8.1,-,N/A,,Clear,160,2012-09-30 23:55:00
7:15 PM,66.2,39.2,37,29.87,10.0,SSE,6.9,-,N/A,,Partly Cloudy,160,2012-10-01 00:15:00
7:35 PM,64.4,39.2,40,29.87,10.0,SSE,9.2,-,N/A,,Scattered Clouds,160,2012-10-01 00:35:00
7:55 PM,66.2,39.2,37,29.86,10.0,SSE,8.1,-,N/A,,Clear,150,2012-10-01 00:55:00
8:15 PM,62.6,39.2,42,29.86,10.0,SSE,8.1,-,N/A,,Clear,160,2012-10-01 01:15:00
8:35 PM,62.6,39.2,42,29.86,10.0,SSE,8.1,-,N/A,,Clear,150,2012-10-01 01:35:00
8:55 PM,62.6,39.2,42,29.86,10.0,SSE,10.4,-,N/A,,Clear,160,2012-10-01 01:55:00
9:15 PM,62.6,39.2,42,29.86,10.0,SSE,10.4,-,N/A,,Clear,160,2012-10-01 02:15:00
9:35 PM,60.8,39.2,45,29.86,10.0,SSE,10.4,-,N/A,,Clear,160,2012-10-01 02:35:00
9:55 PM,60.8,39.2,45,29.86,10.0,SSE,6.9,-,N/A,,Clear,150,2012-10-01 02:55:00
10:15 PM,57.2,39.2,51,29.85,10.0,SE,6.9,-,N/A,,Clear,140,2012-10-01 03:15:00
10:35 PM,57.2,41.0,55,29.85,10.0,SE,5.8,-,N/A,,Clear,140,2012-10-01 03:35:00
10:55 PM,55.4,42.8,63,29.86,10.0,South,4.6,-,N/A,,Clear,170,2012-10-01 03:55:00
11:15 PM,53.6,42.8,67,29.86,10.0,SE,4.6,-,N/A,,Clear,130,2012-10-01 04:15:00
11:35 PM,51.8,42.8,71,29.87,10.0,Calm,Calm,-,N/A,,Scattered Clouds,0,2012-10-01 04:35:00
11:55 PM,50.0,42.8,76,29.86,10.0,Calm,Calm,-,N/A,,Scattered Clouds,0,2012-10-01 04:55:00